THOR ABLESTAR R/B, 1508

Orbit data source: Space-Track

THOR ABLESTAR R/B, 1508 is space debris in LEO originally from a launch on Fri, 13 Aug 1965 UTC launched from the Air Force Western Test Range (AFWTR). Debris objects in space refer to the collection of defunct objects orbiting the Earth. Examples of debris include non-operational satellites, rocket bodies, and fragments generated from explosions, collisions, or faulty payload assembly.

Loading next visibility...
Identifier
1508, 1965-065B
Orbit
LEO
Country
Flag of USUS
Related business
Manufacturer
Aerojet
Mission
Spacecraft
Bus & Motor
ABLESTAR, Unknown motor
Mass
~600 kg wet, 600 kg dry
Launch date (UTC)
1965-08-13 (60 years ago)
Launch vehicle
Unknown
Launch site
Air Force Western Test Range (AFWTR)
Object type
Payload
Rocket body
Debris
Shape & HBR
Unknown
Radar Cross Section
Large (>1 m²)

Expand to show TLE details & history
Last TLE update: 17 hours ago

TLE from 17 hours ago
0 THOR ABLESTAR R/B
1 01508U 65065B   25309.05332481  .00000037  00000-0  54973-4 0  9993
2 01508  90.1362 304.7197 0040267 243.2620 180.5837 13.36081451935489
Epoch: 2025-11-05T01:16Z
TLE epoch observation values (Epoch: 2025-11-05T01:16:47.263Z)
Latitude
63.92346°
Longitude
-119.28564°
Altitude
1,165.215 km
Speed
7.262 km/s
True Right ascension
20h 17m 46s
True Declination
63° 47' 41"
Sunlit
Object was in daylight at epoch
Visualization orbit readout
Latitude
Unknown
Longitude
Unknown
Altitude
Unknown
Speed
Unknown
Apparent Right ascension
Unknown
Apparent Declination
Unknown
Sunlit
N/A
Visualization observer readout
Local Sidereal Time
14:23:35
Azimuth
Unknown
Elevation
Unknown
Doppler factor
Unknown
Orbital elements
Apogee altitude
1,151.179 km
Perigee altitude
1,090.785 km
Semi-major axis
7,499.119 km
Eccentricity
0.00403
Inclination
90.1362°
RAAN
304.7197°
Arg. of periapsis
243.262°
True anomaly
180.57902°
Mean anomaly
180.5837°
Eccentric anomaly
180.58136°
Mean motion
3.34216 °/min
Orbital period
107.71 mins
BSTAR
0.000054973
Loading maneuver chart data...
Computing Atmospheric mass density...
Loading historical data...
Loading historical data...
Loading historical data...
Loading historical data...
Loading historical data...
Loading historical data...
Loading historical data...

Documentation

Showing up to 5 results
|